1500408000.99,19716,18.44,74638.3,3.45,2.39,2.39,0,*77
1500408002.25,19717,18.38,74634.0,3.45,2.47,2.47,0,*76
1500408003.48,19718,18.44,74638.5,3.43,2.39,2.47,0,*76
1500408004.7,19719,18.44,74640.8,3.43,2.47,2.47,0,*7E
1500408005.93,19720,18.44,74638.5,3.43,2.59,2.59,0,*74
1500408007.17,19721,18.44,74634.5,3.43,2.59,2.51,0,*7D
1500408008.42,19722,18.44,74638.3,3.45,2.47,2.47,0,*70
1500408009.65,19723,18.44,74638.5,3.43,2.39,2.39,0,*77
1500408010.89,19724,18.44,74634.8,3.43,2.47,2.39,0,*79
1500408012.14,19725,18.44,74634.3,3.45,2.47,2.39,0,*7E
1500408013.35,19726,18.38,74632.8,3.43,2.35,2.39,0,*7E
1500408014.57,19727,18.44,74636.0,3.43,2.47,2.47,0,*73
1500408015.81,19728,18.44,74636.8,3.43,2.47,2.51,0,*7B
1500408017.04,19729,18.44,74638.3,3.43,2.59,2.51,0,*75
1500408018.27,19730,18.44,74638.5,3.43,2.51,2.59,0,*7D
1500408019.51,19731,18.44,74634.5,3.43,2.51,2.51,0,*74
1500408020.77,19732,18.44,74638.0,3.45,2.59,2.51,0,*79
1500408022.0,19733,18.44,74636.0,3.43,2.59,2.51,0,*7E
1500408023.27,19734,18.44,74636.3,3.45,2.51,2.51,0,*77
1500408024.5,19735,18.44,74636.0,3.43,2.59,2.51,0,*78
1500408025.74,19736,18.44,74636.3,3.43,2.51,2.51,0,*73
1500408026.97,19737,18.44,74634.0,3.43,2.59,2.59,0,*72
1500408028.2,19738,18.44,74634.5,3.43,2.59,2.59,0,*7D
1500408029.43,19739,18.44,74636.0,3.43,2.47,2.59,0,*73
1500408030.66,19740,18.44,74636.3,3.43,2.59,2.59,0,*72
1500408031.89,19741,18.44,74634.5,3.43,2.59,2.51,0,*7B
1500408033.12,19742,18.44,74636.0,3.43,2.51,2.39,0,*7E
1500408034.35,19743,18.44,74638.3,3.43,2.39,2.39,0,*71
1500408035.58,19744,18.44,74634.8,3.43,2.47,2.47,0,*76
1500408036.81,19745,18.44,74638.5,3.43,2.59,2.59,0,*77
1500408038.05,19746,18.44,74634.0,3.43,2.51,2.51,0,*74
1500408039.28,19747,18.44,74636.3,3.43,2.59,2.51,0,*7D
1500408040.49,19748,18.44,74636.5,3.43,2.61,2.59,0,*71
1500408041.72,19749,18.44,74636.8,3.45,2.61,2.59,0,*76
1500408042.94,19750,18.44,74638.3,3.43,2.69,2.69,0,*73
1500408044.16,19751,18.44,74634.5,3.43,2.69,2.69,0,*72
1500408045.38,19752,18.44,74636.0,3.43,2.69,2.69,0,*71
1500408046.61,19753,18.44,74634.5,3.45,2.61,2.69,0,*7E
1500408047.81,19754,18.44,74634.8,3.43,2.61,2.59,0,*7C
1500408049.05,19755,18.44,74632.5,3.43,2.59,2.59,0,*76
1500408050.28,19756,18.38,74634.5,3.43,2.51,2.51,0,*75
1500408051.53,19757,18.44,74634.3,3.45,2.51,2.47,0,*75
1500408052.74,19758,18.38,74630.5,3.43,2.69,2.61,0,*73
1500408053.94,19759,18.44,74634.8,3.43,2.61,2.69,0,*72
1500408055.16,19760,18.44,74638.0,3.43,2.69,2.69,0,*70
1500408056.4,19761,18.44,74632.0,3.45,2.69,2.61,0,*7F
1500408057.61,19762,18.44,74636.3,3.45,2.61,2.61,0,*74
1500408058.84,19763,18.44,74634.5,3.43,2.51,2.59,0,*7B
1500408060.05,19764,18.44,74632.8,3.45,2.61,2.61,0,*72
1500408061.23,19765,18.44,74632.0,3.43,2.61,2.61,0,*75
1500408062.43,19766,18.44,74634.5,3.43,2.61,2.69,0,*7E
1500408063.62,19767,18.44,74632.0,3.43,2.61,2.61,0,*77
1500408064.86,19768,18.38,74632.5,3.45,2.69,2.69,0,*7E
1500408066.11,19769,18.44,74634.8,3.45,2.69,2.69,0,*7F
1500408067.3,19770,18.44,74634.8,3.43,2.61,2.61,0,*71
1500408068.5,19771,18.44,74634.8,3.43,2.69,2.61,0,*78
1500408069.73,19772,18.44,74636.5,3.45,2.61,2.69,0,*7D
1500408070.96,19773,18.44,74636.3,3.45,2.61,2.69,0,*7C
1500408072.18,19774,18.44,74634.0,3.45,2.61,2.69,0,*7B
1500408073.41,19775,18.44,74634.8,3.45,2.61,2.69,0,*7A
1500408074.66,19776,18.44,74638.5,3.45,2.69,2.69,0,*71
1500408075.91,19777,18.44,74632.0,3.45,2.69,2.73,0,*7B
1500408077.13,19778,18.44,74634.3,3.43,2.69,2.69,0,*79
1500408078.37,19779,18.44,74634.0,3.45,2.69,2.61,0,*76
1500408079.61,19780,18.44,74632.8,3.45,2.69,2.69,0,*78
1500408080.86,19781,18.38,74634.8,3.45,2.69,2.69,0,*79
1500408082.12,19782,18.44,74636.0,3.45,2.69,2.59,0,*79
1500408083.37,19783,18.38,74634.8,3.45,2.59,2.59,0,*7B
1500408084.63,19784,18.38,74632.5,3.45,2.59,2.59,0,*7C
1500408085.88,19785,18.44,74634.8,3.45,2.69,2.69,0,*7D
1500408087.13,19786,18.38,74632.5,3.45,2.69,2.69,0,*7E
1500408088.38,19787,18.44,74638.0,3.45,2.69,2.69,0,*7F
1500408089.61,19788,18.44,74634.0,3.49,2.73,2.65,0,*7B
1500408090.82,19789,18.44,74634.8,3.45,2.61,2.61,0,*71
1500408092.08,19790,18.44,74634.3,3.45,2.59,2.51,0,*71
1500408093.34,19791,18.44,74636.3,3.45,2.59,2.51,0,*70
1500408094.59,19792,18.44,74636.8,3.45,2.59,2.69,0,*78
1500408095.82,19793,18.44,74636.8,3.45,2.61,2.59,0,*71
1500408097.08,19794,18.38,74632.5,3.45,2.69,2.59,0,*7E
1500408098.31,19795,18.44,74636.0,3.45,2.69,2.61,0,*74
1500408099.52,19796,18.38,74632.0,3.45,2.61,2.61,0,*7F
1500408100.73,19797,18.44,74638.8,3.45,2.61,2.61,0,*7E
1500408101.94,19798,18.44,74632.0,3.45,2.61,2.61,0,*71
1500408103.16,19799,18.44,74638.5,3.45,2.61,2.69,0,*78
1500408104.37,19800,18.44,74636.5,3.45,2.61,2.61,0,*7F
1500408105.64,19801,18.44,74636.8,3.45,2.51,2.51,0,*7E
1500408106.89,19802,18.38,74632.3,3.45,2.47,2.39,0,*74
1500408108.13,19803,18.38,74632.3,3.43,2.51,2.39,0,*74
1500408109.39,19804,18.44,74638.3,3.45,2.59,2.51,0,*73
1500408110.62,19805,18.44,74632.5,3.45,2.61,2.59,0,*71
1500408111.83,19806,18.44,74638.3,3.45,2.61,2.61,0,*79
1500408113.09,19807,18.44,74638.8,3.45,2.51,2.51,0,*78
1500408114.32,19808,18.44,74636.8,3.43,2.47,2.47,0,*71
1500408115.57,19809,18.38,74632.8,3.45,2.39,2.39,0,*76
1500408116.83,19810,18.38,74632.8,3.45,2.47,2.47,0,*7E
1500408118.09,19811,18.38,74632.3,3.45,2.39,2.39,0,*7F
1500408119.32,19812,18.44,74634.8,3.43,2.47,2.39,0,*73
1500408120.55,19813,18.44,74636.3,3.43,2.39,2.39,0,*7B
1500408121.78,19814,18.44,74636.8,3.45,2.35,2.39,0,*76
1500408123.01,19815,18.44,74636.5,3.43,2.59,2.59,0,*7D
1500408124.24,19816,18.38,74632.5,3.43,2.51,2.59,0,*76
1500408125.47,19817,18.44,74638.0,3.43,2.51,2.51,0,*7F
1500408126.71,19818,18.44,74638.0,3.43,2.51,2.51,0,*70
1500408127.94,19819,18.44,74636.8,3.43,2.47,2.47,0,*71
1500408129.17,19820,18.44,74636.3,3.43,2.51,2.51,0,*7B
1500408130.4,19821,18.44,74636.3,3.43,2.59,2.59,0,*7A
1500408131.64,19822,18.44,74638.5,3.43,2.51,2.51,0,*79
1500408132.87,19823,18.38,74634.0,3.43,2.47,2.47,0,*78
1500408134.1,19824,18.44,74638.0,3.43,2.59,2.51,0,*77
1500408135.33,19825,18.44,74638.5,3.43,2.59,2.59,0,*7E
1500408136.56,19826,18.44,74636.5,3.43,2.51,2.47,0,*7A
1500408137.76,19827,18.44,74636.3,3.43,2.39,2.35,0,*70
1500408138.96,19828,18.44,74634.0,3.43,2.39,2.27,0,*7C
1500408140.14,19829,18.44,74636.8,3.43,2.35,2.35,0,*72
1500408141.4,19830,18.38,74632.0,3.41,2.43,2.43,0,*78
1500408142.66,19831,18.44,74638.8,3.41,2.47,2.47,0,*79
1500408143.86,19832,18.38,74634.3,3.41,2.35,2.35,0,*7A
1500408145.12,19833,18.44,74638.3,3.41,2.43,2.43,0,*7B
1500408146.38,19834,18.44,74634.8,3.41,2.43,2.47,0,*78
1500408147.64,19835,18.44,74638.3,3.41,2.47,2.47,0,*7D
1500408148.9,19836,18.44,74634.8,3.41,2.55,2.43,0,*79
1500408150.16,19837,18.44,74636.5,3.41,2.47,2.43,0,*7B
1500408151.42,19838,18.44,74632.8,3.41,2.43,2.43,0,*70
1500408152.68,19839,18.44,74634.5,3.41,2.47,2.47,0,*71
1500408153.9,19840,18.38,74632.8,3.39,2.47,2.47,0,*70
1500408155.13,19841,18.44,74636.8,3.39,2.47,2.47,0,*71
1500408156.36,19842,18.44,74636.8,3.39,2.55,2.59,0,*7E
1500408157.57,19843,18.44,74636.0,3.39,2.59,2.65,0,*7C
1500408158.8,19844,18.44,74636.5,3.41,2.65,2.59,0,*74
1500408160.06,19845,18.44,74636.3,3.41,2.59,2.59,0,*7A
1500408161.3,19846,18.44,74638.0,3.41,2.65,2.69,0,*75
1500408162.51,19847,18.38,74632.8,3.41,2.65,2.65,0,*78
1500408163.74,19848,18.44,74636.3,3.41,2.65,2.55,0,*74
1500408165.0,19849,18.44,74636.5,3.41,2.59,2.59,0,*76
1500408166.22,19850,18.44,74638.3,3.43,2.73,2.69,0,*77
1500408167.44,19851,18.44,74638.8,3.43,2.73,2.69,0,*76
1500408168.65,19852,18.38,74636.5,3.43,2.69,2.61,0,*76
1500408169.83,19853,18.44,74636.3,3.43,2.61,2.61,0,*7F
1500408171.07,19854,18.44,74638.8,3.43,2.51,2.51,0,*78
1500408172.3,19855,18.44,74638.8,3.43,2.47,2.47,0,*79
1500408173.53,19856,18.44,74636.0,3.43,2.51,2.51,0,*7A
1500408174.79,19857,18.44,74634.0,3.41,2.55,2.59,0,*75
1500408176.05,19858,18.44,74636.5,3.41,2.59,2.47,0,*79
1500408177.31,19859,18.38,74632.8,3.41,2.59,2.59,0,*77
1500408178.51,19860,18.44,74638.0,3.43,2.61,2.69,0,*77
1500408179.69,19861,18.38,74634.0,3.43,2.61,2.61,0,*7E
1500408180.92,19862,18.38,74634.0,3.43,2.59,2.51,0,*75
1500408182.15,19863,18.44,74636.8,3.43,2.47,2.47,0,*7C
1500408183.38,19864,18.38,74634.5,3.43,2.39,2.39,0,*7B
1500408184.64,19865,18.44,74638.0,3.41,2.59,2.59,0,*78
1500408185.9,19866,18.44,74636.5,3.41,2.55,2.47,0,*78
1500408187.15,19867,18.44,74638.0,3.41,2.55,2.47,0,*79
1500408188.41,19868,18.38,74634.5,3.41,2.47,2.47,0,*75
1500408189.64,19869,18.44,74638.8,3.39,2.47,2.55,0,*78
1500408190.87,19870,18.38,74636.0,3.43,2.59,2.59,0,*7E
1500408192.1,19871,18.44,74638.0,3.43,2.59,2.59,0,*7F
1500408193.33,19872,18.44,74636.8,3.39,2.43,2.47,0,*75
1500408194.56,19873,18.38,74636.0,3.43,2.59,2.47,0,*72
1500408195.76,19874,18.44,74638.3,3.39,2.43,2.35,0,*76
1500408197.02,19875,18.44,74636.3,3.41,2.43,2.43,0,*79
1500408198.25,19876,18.38,74634.8,3.41,2.43,2.35,0,*7B
1500408199.42,19877,18.38,74636.5,3.39,2.31,2.31,0,*74
1500408200.63,19878,18.44,74638.0,3.41,2.31,2.35,0,*70
1500408201.83,19879,18.44,74636.5,3.39,2.35,2.43,0,*7B
1500408203.06,19880,18.44,74636.5,3.41,2.43,2.31,0,*76
1500408204.32,19881,18.38,74634.8,3.41,2.47,2.43,0,*76
1500408205.58,19882,18.38,74632.5,3.41,2.47,2.47,0,*71
1500408206.78,19883,18.44,74638.5,3.41,2.35,2.31,0,*74
1500408208.01,19884,18.44,74638.5,3.41,2.43,2.35,0,*76
1500408209.27,19885,18.44,74638.0,3.41,2.47,2.47,0,*76
1500408210.5,19886,18.44,74638.3,3.39,2.59,2.47,0,*75
1500408211.76,19887,18.44,74636.8,3.41,2.59,2.55,0,*78
1500408212.99,19888,18.44,74634.8,3.41,2.35,2.43,0,*7A
1500408214.16,19889,18.38,74638.5,3.39,2.35,2.35,0,*75
1500408215.36,19890,18.38,74636.8,3.41,2.31,2.31,0,*72
1500408216.6,19891,18.44,74636.8,3.41,2.43,2.35,0,*72
1500408217.77,19892,18.44,74636.0,3.39,2.35,2.35,0,*7F
1500408218.97,19893,18.44,74638.8,3.41,2.35,2.35,0,*71
1500408220.18,19894,18.44,74636.5,3.39,2.43,2.35,0,*78
1500408221.35,19895,18.44,74638.5,3.39,2.31,2.31,0,*78
1500408222.52,19896,18.44,74636.0,3.39,2.31,2.31,0,*7B
1500408223.72,19897,18.38,74636.5,3.39,2.25,2.31,0,*7F
1500408224.92,19898,18.44,74636.0,3.39,2.31,2.25,0,*70
1500408226.15,19899,18.38,74634.3,3.39,2.25,2.25,0,*74
1500408227.32,19900,18.38,74632.3,3.39,2.35,2.35,0,*75
1500408228.55,19901,18.44,74638.8,3.37,2.31,2.39,0,*72
1500408229.76,19902,18.44,74638.8,3.39,2.35,2.43,0,*76
1500408230.99,19903,18.44,74640.3,3.39,2.43,2.43,0,*76
1500408232.22,19904,18.38,74636.5,3.39,2.43,2.43,0,*71
1500408233.48,19905,18.38,74636.0,3.37,2.43,2.51,0,*7D
1500408234.74,19906,18.44,74636.3,3.37,2.43,2.43,0,*7D
1500408235.94,19907,18.38,74636.0,3.37,2.31,2.31,0,*7C
1500408237.11,19908,18.44,74638.3,3.39,2.35,2.31,0,*79
1500408238.34,19909,18.44,74638.5,3.39,2.43,2.43,0,*7C
1500408239.57,19910,18.44,74638.3,3.37,2.31,2.21,0,*7B
1500408240.77,19911,18.44,74638.0,3.37,2.31,2.27,0,*7C
1500408241.97,19912,18.44,74638.8,3.37,2.27,2.31,0,*7F
1500408243.15,19913,18.44,74638.3,3.35,2.31,2.27,0,*7C
1500408244.36,19914,18.38,74634.3,3.35,2.31,2.39,0,*74
1500408245.56,19915,18.38,74638.3,3.37,2.31,2.31,0,*7F
1500408246.82,19916,18.44,74636.3,3.37,2.39,2.43,0,*71
1500408248.02,19917,18.38,74632.3,3.37,2.31,2.31,0,*7D
1500408249.28,19918,18.38,74636.5,3.37,2.39,2.39,0,*72
1500408250.48,19919,18.38,74636.5,3.37,2.31,2.31,0,*73
1500408251.66,19920,18.38,74636.3,3.35,2.27,2.27,0,*7B
1500408252.86,19921,18.44,74638.3,3.37,2.27,2.27,0,*78
1500408254.12,19922,18.44,74638.8,3.37,2.43,2.39,0,*76
1500408255.29,19923,18.44,74638.3,3.35,2.31,2.31,0,*78
1500408256.52,19924,18.44,74638.3,3.37,2.39,2.31,0,*75
1500408257.75,19925,18.44,74636.0,3.35,2.43,2.43,0,*7E
1500408259.01,19926,18.38,74632.5,3.37,2.39,2.39,0,*7F
1500408260.19,19927,18.38,74636.3,3.35,2.27,2.27,0,*7C
1500408261.37,19928,18.38,74636.5,3.35,2.31,2.27,0,*74
1500408262.55,19929,18.38,74638.5,3.35,2.31,2.31,0,*72
1500408263.72,19930,18.38,74632.0,3.35,2.31,2.31,0,*7A
1500408264.96,19931,18.38,74634.5,3.35,2.39,2.39,0,*7B
1500408266.19,19932,18.38,74636.5,3.35,2.43,2.43,0,*78
1500408267.39,19933,18.38,74636.0,3.35,2.39,2.31,0,*71
1500408268.65,19934,18.38,74636.3,3.37,2.39,2.39,0,*7C
1500408269.88,19935,18.44,74638.3,3.37,2.39,2.27,0,*72
1500408271.06,19936,18.38,74634.0,3.35,2.31,2.31,0,*7C
1500408272.26,19937,18.38,74638.0,3.35,2.31,2.39,0,*75
1500408273.44,19938,18.44,74636.8,3.35,2.31,2.31,0,*72
1500408274.65,19939,18.38,74638.5,3.35,2.31,2.39,0,*7B
1500408275.85,19940,18.38,74634.8,3.33,2.35,2.27,0,*78
1500408277.09,19941,18.44,74638.0,3.35,2.51,2.51,0,*7C
1500408278.32,19942,18.44,74636.5,3.35,2.55,2.51,0,*7B
1500408279.56,19943,18.38,74636.0,3.35,2.43,2.43,0,*7E
1500408280.79,19944,18.38,74636.3,3.35,2.39,2.39,0,*79
1500408282.0,19945,18.38,74636.5,3.33,2.27,2.35,0,*7D
1500408283.23,19946,18.44,74638.0,3.33,2.27,2.39,0,*72
1500408284.41,19947,18.38,74638.5,3.35,2.31,2.31,0,*7A
1500408285.61,19948,18.38,74636.8,3.35,2.27,2.21,0,*73
1500408286.88,19949,18.44,74638.5,3.33,2.17,2.25,0,*73
1500408288.14,19950,18.44,74638.8,3.33,2.17,2.25,0,*7B
1500408289.39,19951,18.44,74638.0,3.31,2.13,2.13,0,*79
1500408290.66,19952,18.38,74636.0,3.33,2.17,2.17,0,*78
1500408291.89,19953,18.38,74636.8,3.33,2.27,2.25,0,*7B
1500408293.14,19954,18.38,74636.3,3.31,2.21,2.21,0,*7C
1500408294.39,19955,18.38,74636.5,3.33,2.13,2.05,0,*78
1500408295.64,19956,18.38,74638.0,3.31,2.09,2.09,0,*7E
1500408296.91,19957,18.44,74636.0,3.33,2.17,2.13,0,*79
1500408298.16,19958,18.38,74636.8,3.31,2.13,2.09,0,*7B
1500408299.4,19959,18.38,74636.5,3.31,2.13,2.21,0,*70
1500408300.65,19960,18.44,74638.0,3.31,2.21,2.13,0,*7A
1500408301.88,19961,18.44,74636.0,3.31,2.31,2.13,0,*7A
1500408303.14,19962,18.38,74634.5,3.33,2.25,2.17,0,*7A
1500408304.39,19963,18.44,74638.8,3.31,2.21,2.13,0,*79
1500408305.58,19964,18.38,74638.3,3.31,2.31,2.31,0,*7F
1500408306.83,19965,18.38,74634.3,3.31,2.21,2.25,0,*7A
1500408308.08,19966,18.38,74636.3,3.31,2.25,2.25,0,*7D
1500408309.32,19967,18.44,74640.3,3.31,2.25,2.21,0,*78
1500408310.57,19968,18.44,74636.0,3.31,2.21,2.13,0,*72
1500408311.8,19969,18.38,74632.3,3.29,2.25,2.25,0,*7B
1500408313.0,19970,18.44,74640.3,3.29,2.31,2.21,0,*72
1500408314.17,19971,18.44,74636.3,3.29,2.35,2.31,0,*76
1500408315.35,19972,18.38,74638.3,3.29,2.35,2.31,0,*75
1500408316.58,19973,18.44,74636.5,3.29,2.43,2.43,0,*70
1500408317.75,19974,18.38,74634.5,3.29,2.35,2.35,0,*77
1500408318.96,19975,18.44,74638.3,3.29,2.35,2.43,0,*77
1500408320.16,19976,18.38,74636.0,3.29,2.43,2.35,0,*74
1500408321.39,19977,18.38,74636.8,3.31,2.31,2.25,0,*78
1500408322.64,19978,18.38,74638.5,3.31,2.25,2.25,0,*72
1500408323.88,19979,18.38,74638.5,3.31,2.21,2.13,0,*72
1500408325.11,19980,18.44,74636.8,3.29,2.21,2.21,0,*7C
1500408326.33,19981,18.38,74636.5,3.29,2.25,2.21,0,*79
1500408327.56,19982,18.38,74636.0,3.29,2.21,2.13,0,*7F
1500408328.78,19983,18.38,74636.3,3.29,2.21,2.25,0,*7B
1500408330.01,19984,18.38,74636.5,3.29,2.25,2.21,0,*7C
1500408331.24,19985,18.44,74636.8,3.29,2.13,2.13,0,*79
1500408332.49,19986,18.38,74638.3,3.27,2.17,2.05,0,*77
1500408333.74,19987,18.44,74638.8,3.27,2.17,2.21,0,*70
1500408334.96,19988,18.44,74638.3,3.29,2.21,2.21,0,*74
1500408336.2,19989,18.44,74636.3,3.29,2.25,2.13,0,*70
1500408337.45,19990,18.44,74636.8,3.27,2.17,2.17,0,*73
1500408338.7,19991,18.44,74638.0,3.27,2.09,2.09,0,*72
1500408339.94,19992,18.38,74634.5,3.29,2.09,2.13,0,*74
1500408341.16,19993,18.38,74636.3,3.29,2.13,2.21,0,*7F
1500408342.38,19994,18.38,74636.8,3.29,2.21,2.21,0,*79
1500408343.64,19995,18.38,74636.8,3.27,2.17,2.09,0,*79
1500408344.89,19996,18.38,74638.3,3.27,2.09,2.09,0,*75
1500408346.13,19997,18.38,74636.8,3.27,2.09,2.09,0,*74
1500408347.38,19998,18.38,74634.8,3.27,2.09,2.09,0,*7B
1500408348.64,19999,18.38,74636.0,3.27,2.17,2.17,0,*7A
1500408349.89,20000,18.38,74634.0,3.27,2.09,2.05,0,*75
1500408351.14,20001,18.38,74634.8,3.27,2.05,2.17,0,*7B
1500408352.37,20002,18.44,74636.5,3.25,2.17,2.17,0,*79
1500408353.61,20003,18.44,74636.8,3.25,2.17,2.17,0,*78
1500408354.83,20004,18.38,74638.3,3.25,2.09,2.17,0,*70
1500408356.06,20005,18.44,74636.8,3.25,2.09,2.09,0,*7E
1500408357.29,20006,18.44,74638.0,3.25,2.17,2.17,0,*7D
1500408358.5,20007,18.44,74640.0,3.25,2.21,2.21,0,*7C
1500408359.67,20008,18.44,74638.3,3.25,2.31,2.31,0,*73
1500408360.93,20009,18.38,74636.3,3.27,2.43,2.51,0,*73
1500408362.16,20010,18.38,74636.3,3.25,2.43,2.51,0,*79
1500408363.39,20011,18.38,74638.0,3.25,2.51,2.51,0,*7B
1500408364.65,20012,18.38,74638.3,3.27,2.51,2.51,0,*7A
1500408365.9,20013,18.44,74638.5,3.27,2.43,2.43,0,*7B
1500408367.15,20014,18.38,74638.3,3.27,2.43,2.43,0,*7C
1500408368.4,20015,18.38,74636.8,3.27,2.39,2.21,0,*74
1500408369.57,20016,18.38,74638.0,3.25,2.27,2.27,0,*7C
1500408370.8,20017,18.38,74636.3,3.21,2.13,2.13,0,*79
1500408371.99,20018,18.38,74638.0,3.25,2.21,2.27,0,*74
1500408373.18,20019,18.38,74636.5,3.25,2.21,2.27,0,*75
1500408374.44,20020,18.38,74636.8,3.27,2.39,2.43,0,*76
1500408375.68,20021,18.38,74636.8,3.27,2.55,2.55,0,*7A
1500408376.93,20022,18.38,74636.3,3.27,2.55,2.59,0,*75
1500408378.15,20023,18.38,74636.8,3.27,2.69,2.65,0,*74
1500408379.4,20024,18.44,74638.3,3.27,2.51,2.55,0,*7B
1500408380.66,20025,18.38,74636.0,3.27,2.51,2.43,0,*7D
1500408381.91,20026,18.38,74636.3,3.27,2.59,2.51,0,*75
1500408383.16,20027,18.38,74632.8,3.27,2.59,2.55,0,*70
1500408384.39,20028,18.44,74638.0,3.29,2.59,2.59,0,*7D
1500408385.62,20029,18.38,74634.0,3.29,2.47,2.47,0,*7C
1500408386.83,20030,18.38,74636.0,3.29,2.35,2.43,0,*75
1500408388.08,20031,18.38,74636.0,3.27,2.39,2.39,0,*7B
1500408389.28,20032,18.38,74638.5,3.29,2.35,2.43,0,*77
1500408390.51,20033,18.38,74634.8,3.29,2.55,2.47,0,*74
1500408391.71,20034,18.38,74638.3,3.27,2.31,2.31,0,*7E
1500408392.94,20035,18.38,74636.8,3.29,2.43,2.43,0,*71
1500408394.19,20036,18.38,74638.5,3.27,2.43,2.39,0,*71
1500408395.37,20037,18.38,74636.0,3.29,2.35,2.35,0,*73
1500408396.56,20038,18.38,74634.5,3.27,2.31,2.31,0,*72
1500408397.81,20039,18.38,74638.8,3.27,2.43,2.39,0,*7E
1500408399.07,20040,18.38,74636.0,3.27,2.51,2.43,0,*7E
1500408400.3,20041,18.38,74634.5,3.29,2.47,2.47,0,*72
1500408401.52,20042,18.38,74638.8,3.29,2.55,2.55,0,*71
1500408402.75,20043,18.44,74638.3,3.29,2.51,2.55,0,*74
1500408403.98,20044,18.38,74638.8,3.29,2.43,2.47,0,*73
1500408405.24,20045,18.38,74638.3,3.27,2.39,2.39,0,*78
1500408406.46,20046,18.38,74636.0,3.29,2.55,2.55,0,*75
1500408407.71,20047,18.38,74636.3,3.27,2.51,2.43,0,*79
1500408408.89,20048,18.38,74632.0,3.29,2.35,2.35,0,*7B
1500408410.11,20049,18.38,74634.3,3.29,2.55,2.55,0,*7A
1500408411.34,20050,18.38,74636.5,3.29,2.55,2.47,0,*71
1500408412.57,20051,18.44,74640.8,3.29,2.47,2.47,0,*73
1500408413.8,20052,18.44,74642.3,3.29,2.43,2.43,0,*70
1500408415.06,20053,18.38,74636.5,3.27,2.39,2.43,0,*72
1500408416.29,20054,18.38,74636.0,3.29,2.47,2.55,0,*75
1500408417.51,20055,18.38,74636.3,3.29,2.55,2.55,0,*77
1500408418.77,20056,18.44,74638.8,3.27,2.51,2.51,0,*7A
1500408419.98,20057,18.38,74636.3,3.29,2.55,2.61,0,*72
1500408421.21,20058,18.38,74638.5,3.29,2.59,2.59,0,*7A
1500408422.42,20059,18.38,74636.0,3.29,2.59,2.61,0,*70
1500408423.63,20060,18.38,74638.5,3.29,2.69,2.61,0,*79
1500408424.86,20061,18.38,74636.8,3.29,2.59,2.59,0,*70
1500408426.09,20062,18.38,74638.0,3.29,2.59,2.55,0,*7F
1500408427.29,20063,18.38,74638.5,3.29,2.43,2.35,0,*73
1500408428.47,20064,18.38,74636.0,3.29,2.35,2.35,0,*75
1500408429.64,20065,18.38,74638.3,3.29,2.35,2.31,0,*70
1500408430.84,20066,18.38,74636.8,3.29,2.43,2.35,0,*76
1500408432.02,20067,18.38,74636.8,3.29,2.35,2.35,0,*76
1500408433.19,20068,18.38,74640.3,3.29,2.35,2.31,0,*7D
1500408434.37,20069,18.38,74636.0,3.29,2.31,2.31,0,*78
1500408435.57,20070,18.38,74636.8,3.29,2.31,2.25,0,*75
1500408436.8,20071,18.38,74636.8,3.29,2.47,2.47,0,*71
1500408438.05,20072,18.38,74638.0,3.27,2.55,2.51,0,*78
1500408439.28,20073,18.38,74632.0,3.29,2.59,2.47,0,*7C
1500408440.51,20074,18.38,74634.8,3.29,2.43,2.47,0,*70
1500408441.75,20075,18.38,74636.5,3.29,2.43,2.43,0,*75
1500408442.97,20076,18.38,74634.5,3.27,2.31,2.39,0,*70
1500408444.17,20077,18.44,74642.8,3.27,2.31,2.35,0,*7D
1500408445.4,20078,18.38,74638.0,3.29,2.43,2.43,0,*78
1500408446.63,20079,18.38,74636.5,3.29,2.47,2.47,0,*79
1500408447.81,20080,18.38,74636.5,3.29,2.35,2.31,0,*7B
1500408449.01,20081,18.38,74636.5,3.29,2.35,2.43,0,*7F
1500408450.26,20082,18.38,74636.8,3.27,2.39,2.43,0,*7E
1500408451.49,20083,18.38,74634.3,3.29,2.47,2.55,0,*7F
1500408452.75,20084,18.38,74640.3,3.27,2.39,2.43,0,*78
1500408453.97,20085,18.38,74638.5,3.27,2.39,2.31,0,*7C
1500408455.19,20086,18.38,74636.5,3.29,2.25,2.25,0,*79
1500408456.4,20087,18.38,74638.5,3.29,2.31,2.25,0,*7D
1500408457.58,20088,18.38,74636.5,3.29,2.31,2.35,0,*73
1500408458.8,20089,18.38,74638.5,3.29,2.25,2.25,0,*76
1500408460.0,20090,18.38,74638.5,3.27,2.31,2.31,0,*70
1500408461.2,20091,18.44,74640.3,3.29,2.43,2.35,0,*7E
1500408462.43,20092,18.38,74638.5,3.29,2.39,2.43,0,*71
1500408463.67,20093,18.38,74636.8,3.27,2.21,2.21,0,*73
1500408464.89,20094,18.38,74636.8,3.27,2.21,2.27,0,*72
1500408466.14,20095,18.38,74638.8,3.27,2.17,2.21,0,*70
1500408467.4,20096,18.38,74638.8,3.27,2.17,2.17,0,*76
1500408468.65,20097,18.38,74640.8,3.27,2.09,2.05,0,*7B
1500408469.9,20098,18.38,74636.8,3.27,2.09,2.09,0,*78
1500408471.1,20099,18.38,74638.3,3.25,2.17,2.27,0,*78
1500408472.29,20100,18.38,74636.3,3.25,2.21,2.27,0,*7C
1500408473.51,20101,18.38,74638.5,3.25,2.21,2.21,0,*7B
1500408474.73,20102,18.38,74636.0,3.27,2.21,2.27,0,*7C
1500408475.97,20103,18.38,74640.3,3.27,2.21,2.17,0,*7E
1500408477.22,20104,18.38,74636.3,3.27,2.21,2.17,0,*79
1500408478.46,20105,18.38,74636.0,3.27,2.21,2.21,0,*7D
1500408479.64,20106,18.38,74638.5,3.25,2.27,2.27,0,*7C
1500408480.81,20107,18.38,74632.8,3.25,2.27,2.27,0,*7D
1500408481.98,20108,18.38,74636.8,3.25,2.27,2.31,0,*75
1500408483.19,20109,18.38,74638.8,3.25,2.21,2.21,0,*73
1500408484.41,20110,18.38,74636.0,3.25,2.21,2.17,0,*7E
1500408485.61,20111,18.38,74636.3,3.25,2.27,2.21,0,*7C
1500408486.83,20112,18.38,74638.8,3.21,2.25,2.25,0,*7D
1500408488.06,20113,18.38,74638.3,3.25,2.39,2.39,0,*78
1500408489.23,20114,18.38,74638.8,3.25,2.31,2.31,0,*7F
1500408490.45,20115,18.38,74636.0,3.21,2.25,2.25,0,*7A
1500408491.67,20116,18.38,74636.8,3.25,2.21,2.21,0,*7D
1500408492.87,20117,18.38,74638.5,3.25,2.27,2.17,0,*7F
1500408494.04,20118,18.38,74638.5,3.25,2.27,2.27,0,*73
1500408495.27,20119,18.38,74638.0,3.21,2.13,2.17,0,*72
1500408496.5,20120,18.38,74638.0,3.21,2.13,2.17,0,*78
1500408497.68,20121,18.44,74640.0,3.21,2.27,2.27,0,*7D
1500408498.91,20122,18.38,74636.8,3.25,2.17,2.09,0,*75
1500408500.13,20123,18.38,74636.8,3.25,2.21,2.17,0,*7E
1500408501.37,20124,18.44,74640.8,3.21,2.17,2.17,0,*78
1500408502.6,20125,18.38,74638.0,3.21,2.17,2.17,0,*79
1500408503.8,20126,18.38,74638.3,3.21,2.25,2.27,0,*78
1500408505.0,20127,18.38,74638.0,3.21,2.39,2.35,0,*77
1500408506.22,20128,18.38,74636.8,3.25,2.21,2.21,0,*70
1500408507.46,20129,18.38,74638.0,3.21,2.17,2.17,0,*75
1500408508.68,20130,18.38,74636.8,3.21,2.25,2.25,0,*7D
1500408509.91,20131,18.38,74636.3,3.21,2.25,2.25,0,*7C
1500408511.13,20132,18.38,74638.5,3.21,2.13,2.05,0,*78
1500408512.33,20133,18.38,74638.5,3.21,2.25,2.27,0,*7C
1500408513.53,20134,18.38,74636.0,3.21,2.39,2.35,0,*75
1500408514.76,20135,18.38,74638.3,3.21,2.47,2.47,0,*78
1500408515.99,20136,18.38,74636.3,3.21,2.39,2.39,0,*7B
1500408517.19,20137,18.38,74636.0,3.21,2.27,2.25,0,*78
1500408518.42,20138,18.38,74638.3,3.21,2.25,2.17,0,*74
1500408519.66,20139,18.38,74638.0,3.21,2.17,2.17,0,*74
1500408520.86,20140,18.38,74638.8,3.21,2.25,2.27,0,*78
1500408522.05,20141,18.38,74638.8,3.19,2.35,2.35,0,*70
1500408523.28,20142,18.38,74642.0,3.25,2.43,2.51,0,*7F
1500408524.48,20143,18.38,74638.3,3.19,2.35,2.35,0,*72
1500408525.7,20144,18.38,74636.8,3.19,2.35,2.47,0,*70
1500408526.9,20145,18.38,74638.8,3.19,2.35,2.35,0,*74
1500408528.15,20146,18.38,74638.0,3.19,2.47,2.39,0,*7E
1500408529.38,20147,18.38,74638.0,3.21,2.47,2.47,0,*7D
1500408530.61,20148,18.38,74638.3,3.21,2.51,2.51,0,*72
1500408531.84,20149,18.38,74638.5,3.21,2.39,2.39,0,*73
1500408533.04,20150,18.38,74636.5,3.19,2.35,2.35,0,*70
1500408534.21,20151,18.38,74638.3,3.21,2.27,2.27,0,*7A
1500408535.44,20152,18.38,74636.3,3.21,2.39,2.39,0,*79